Wind_Speed
18 7 7 11 10 11 11 11 8 5 6 6 5 6 6 5 7 7 6 6 8 5 5 8 9 10 10 8 10 18 20 19 20 20 20 20 19 19 18 20 22 23 23 22 22 22 23 24 24 25 26 26 27 29 29 28 27 28 29 29 29 27 29 31 32 33 34 33 32 30 30 30 29 27 25 25 24 23 23 22 21 22 22 22 22 22
16 9 11 13 9 11 13 11 10 8 7 5 3 4 6 6 7 5 6 6 7 4 4 7 9 11 12 10 12 18 17 15 18 20 21 22 22 22 21 22 23 22 22 21 23 24 23 24 25 26 27 28 28 28 30 31 30 29 30 31 31 29 30 32 33 34 34 34 33 32 31 30 30 29 28 28 27 26 25 24 23 23 23 22 22 22
11 11 14 14 11 11 12 11 11 11 9 5 3 3 5 6 6 2 8 7 6 3 4 6 8 11 11 11 12 16 16 18 23 22 22 23 23 24 25 25 25 23 22 23 24 26 26 26 26 27 28 29 27 27 29 31 31 32 32 32 33 32 32 33 34 35 35 34 33 32 31 30 30 30 29 30 29 27 26 26 26 25 25 23 22 22
11 12 15 17 14 13 12 13 12 10 9 5 4 4 5 5 5 2 5 6 5 3 5 6 7 8 10 11 11 16 22 23 27 26 24 25 25 27 28 27 27 26 25 25 26 27 28 28 28 28 29 29 28 28 30 31 32 34 35 34 34 34 34 34 35 36 35 34 33 33 32 31 30 31 30 30 30 29 28 28 28 27 27 26 25 24
10 9 17 18 15 15 14 15 14 9 7 6 6 6 5 5 6 3 4 4 4 4 6 6 7 7 9 12 10 14 22 22 25 27 26 27 27 27 27 27 28 28 27 27 27 28 29 29 30 30 30 29 30 31 31 31 32 33 34 35 35 35 35 35 36 37 36 35 35 34 33 32 32 32 32 32 32 32 31 31 30 28 28 27 26 25
9 12 22 18 14 17 14 13 15 11 6 6 7 7 7 6 7 5 6 4 1 3 5 3 3 4 4 8 8 7 11 15 20 22 24 27 27 27 28 27 28 28 27 27 27 28 29 28 29 30 31 30 31 32 31 30 30 31 32 34 35 36 36 36 36 37 36 36 36 37 36 36 36 37 37 37 36 35 34 33 31 29 28 27 26 25
6 14 20 16 15 18 14 11 15 13 7 5 7 8 9 8 6 4 2 3 1 2 2 3 3 4 4 6 7 5 5 9 14 15 21 28 28 29 31 31 30 29 28 27 26 27 29 28 28 30 31 32 31 30 30 30 30 31 32 33 34 35 36 37 37 37 36 37 37 38 38 37 38 39 39 38 37 35 34 33 30 29 29 27 26 25
9 17 17 16 16 14 12 10 12 14 8 3 8 12 11 8 5 5 3 2 1 2 1 3 4 5 7 7 6 8 9 9 10 10 16 26 30 31 32 33 33 33 32 31 30 29 30 29 29 29 29 30 31 30 29 30 30 32 33 33 33 34 35 36 37 37 37 37 38 38 38 38 38 39 39 38 36 35 34 33 32 31 30 29 28 27
14 19 18 19 16 11 11 9 10 13 7 2 7 9 9 7 5 4 3 2 2 3 3 5 4 4 7 4 5 8 9 9 10 10 11 20 31 33 31 32 34 35 36 36 35 33 32 33 32 30 29 28 29 29 30 30 30 32 34 34 34 34 35 36 37 38 38 38 38 39 38 39 39 39 39 38 36 36 35 34 34 33 32 31 30 29
11 20 22 18 12 9 10 7 10 12 6 4 6 6 4 3 1 1 1 1 4 2 6 4 4 4 6 4 4 6 6 7 8 8 9 15 26 32 32 33 34 36 37 37 38 36 35 35 34 31 29 28 28 30 30 30 31 33 35 37 38 37 37 37 37 38 38 37 38 39 40 40 40 40 40 39 38 38 37 36 36 36 35 34 33 32
8 19 20 13 10 12 10 7 9 10 8 8 7 6 5 3 3 4 3 4 2 5 6 6 7 5 5 3 5 6 6 8 8 6 7 11 18 26 31 33 34 35 37 37 38 37 36 35 35 33 32 31 31 32 33 34 34 34 35 37 39 39 39 39 39 39 38 38 38 39 40 40 40 41 41 41 41 40 40 39 38 38 38 36 35 33
7 13 10 8 14 17 13 7 6 8 10 9 5 5 4 2 4 3 2 3 2 5 1 5 9 7 7 5 2 3 4 6 8 7 7 9 14 21 27 31 33 34 34 36 37 38 37 36 35 35 34 33 33 34 35 35 35 35 35 36 39 40 40 41 41 41 40 40 39 39 39 39 40 41 42 42 42 42 42 41 40 39 39 38 36 34
6 9 8 6 10 16 15 8 4 6 8 7 5 7 6 2 1 1 2 2 4 4 1 1 4 6 9 7 6 9 8 6 7 9 9 10 14 18 19 23 30 33 33 34 35 37 38 38 37 38 36 35 35 35 35 35 35 35 35 35 37 39 40 41 41 42 42 42 41 40 40 40 40 40 41 42 42 42 41 41 40 39 39 38 38 37
6 8 12 9 4 11 15 10 8 8 10 11 9 9 8 5 4 4 3 2 4 4 4 2 3 3 6 4 10 14 15 16 15 15 14 13 15 17 14 14 19 26 29 31 32 34 36 37 36 37 36 36 36 35 35 36 36 36 36 36 36 38 40 41 41 41 42 42 42 42 41 41 41 41 42 42 42 41 41 40 40 39 39 39 40 40
10 7 13 13 8 15 16 13 13 10 10 12 8 7 7 5 5 5 4 5 4 1 3 4 3 3 3 2 6 8 9 14 17 18 18 16 19 20 19 18 18 19 21 23 26 28 31 33 34 34 35 35 35 34 35 36 36 36 37 37 37 38 40 41 41 41 42 42 42 42 42 42 42 42 42 42 42 41 41 40 40 39 39 39 40 40
9 3 9 9 8 18 17 11 12 10 7 6 4 6 6 4 4 3 2 4 4 2 1 4 3 4 2 6 9 5 5 8 12 14 15 18 21 21 21 24 25 23 19 18 19 21 24 26 28 30 32 33 33 33 34 35 36 36 37 38 38 37 38 40 41 42 42 42 42 42 42 43 43 43 43 43 43 42 41 40 40 40 39 39 40 39
9 4 9 9 7 18 19 13 13 11 8 3 4 7 3 1 3 1 1 1 2 3 3 4 4 5 4 9 10 10 11 9 9 11 13 18 21 20 21 25 26 24 20 19 18 18 19 20 21 22 23 25 27 29 30 31 31 31 32 35 36 37 38 39 41 42 42 42 43 43 43 43 44 44 45 45 44 43 42 40 40 40 39 39 39 40
8 3 3 7 8 14 16 15 14 11 9 6 6 8 4 4 2 1 2 0 2 5 3 5 8 5 3 6 6 8 12 10 7 9 12 16 17 18 21 23 23 20 17 18 18 17 18 18 19 20 20 20 20 22 24 24 24 23 24 27 30 33 36 37 39 40 41 42 43 44 44 44 44 45 45 45 44 43 41 40 40 40 39 39 40 40
8 5 3 2 4 5 7 8 7 3 3 5 6 8 6 1 2 4 4 3 5 6 4 5 8 6 7 5 2 3 8 8 8 9 9 10 13 17 19 16 13 12 12 13 14 14 15 16 18 19 20 20 20 20 20 20 21 20 20 22 24 27 31 33 36 38 40 42 43 44 44 44 44 43 44 43 43 42 41 41 41 40 40 40 40 39
8 5 1 2 2 4 5 3 6 3 1 2 5 7 5 3 3 6 5 2 4 5 5 4 4 5 6 7 6 8 10 8 7 8 7 10 14 15 13 8 6 6 8 10 11 12 13 13 14 15 17 19 21 22 22 22 22 21 21 21 22 24 27 29 32 34 37 40 41 43 43 43 42 41 41 41 41 41 41 41 40 40 40 40 40 38
5 4 5 0 3 3 5 5 9 11 7 6 8 9 7 3 1 2 3 2 2 2 3 4 4 5 4 6 11 14 12 8 7 6 5 10 13 10 7 5 2 2 3 5 7 9 10 11 12 12 14 15 17 20 22 24 25 25 25 24 24 25 26 28 30 32 34 36 38 40 41 42 42 40 39 39 39 40 40 40 40 40 39 39 39 37
4 4 7 4 2 6 7 5 5 10 13 10 9 10 10 6 3 2 5 5 3 3 3 3 5 6 4 4 8 11 9 6 7 6 5 7 8 6 4 2 1 2 3 5 7 9 10 11 12 13 14 14 15 16 17 20 24 27 28 28 27 28 28 29 30 30 31 33 35 37 38 39 40 39 38 38 39 39 39 39 40 39 38 38 38 36
5 5 7 5 3 3 2 1 3 3 11 9 6 8 9 7 6 7 8 6 5 5 3 1 5 6 3 3 5 6 6 6 8 7 5 5 7 6 2 1 2 3 4 4 4 4 5 6 8 11 13 14 14 14 14 15 18 22 26 28 29 29 28 28 28 28 29 31 33 35 37 38 38 37 37 38 38 38 38 38 38 37 37 37 36 35
5 5 6 4 3 2 2 1 4 4 3 5 4 6 9 10 10 7 4 4 4 5 4 2 6 7 3 0 2 6 8 9 7 6 5 6 7 5 2 2 3 3 1 2 3 3 2 1 1 4 7 9 10 11 12 12 12 15 18 21 23 25 25 26 26 26 27 28 29 31 33 35 35 35 36 37 38 38 37 36 35 35 36 36 35 34
5 5 8 6 3 1 2 2 1 2 3 7 9 10 11 13 12 6 2 3 3 7 9 7 7 6 3 4 4 4 5 6 6 7 6 5 6 4 2 2 3 3 6 6 7 6 5 5 4 3 3 4 5 7 8 8 9 10 12 14 16 18 20 21 22 22 21 21 21 22 25 28 30 33 34 35 35 35 35 34 34 34 34 34 33 32
8 7 10 11 11 10 9 10 9 8 7 6 9 13 13 15 16 10 4 3 5 7 9 8 8 4 3 6 5 2 3 5 7 7 6 6 6 4 3 3 6 8 8 7 6 6 6 7 7 8 7 6 5 5 6 6 6 7 8 9 11 13 14 16 17 17 16 16 16 16 18 19 22 25 27 28 29 29 30 30 31 31 32 32 32 31
5 6 11 12 14 15 12 8 9 11 10 8 11 15 13 11 11 9 5 6 8 6 4 7 8 6 9 10 7 5 5 7 7 7 8 8 7 6 6 8 11 11 8 5 5 5 6 8 9 10 10 10 8 7 6 6 6 6 7 8 9 10 11 12 13 13 14 14 14 15 16 16 18 19 21 23 25 26 26 27 28 29 30 31 32 32
4 7 12 13 15 12 7 7 12 15 16 16 16 16 14 12 9 8 9 10 8 3 5 11 10 12 18 16 9 7 8 8 6 8 11 11 9 9 10 13 14 13 9 5 4 5 6 7 8 9 9 10 10 9 8 7 6 6 6 8 9 9 10 10 11 12 13 15 15 16 16 17 18 19 21 22 24 25 26 25 25 25 26 27 29 29
3 8 12 13 13 8 8 10 14 15 15 17 19 20 21 20 17 15 15 16 13 9 12 18 18 21 24 15 9 9 10 9 10 12 14 12 11 11 13 16 16 14 11 8 5 3 2 3 4 6 8 9 10 11 11 10 9 8 7 7 8 8 9 10 10 12 13 14 15 16 16 16 17 19 20 22 23 25 25 25 24 24 25 26 26 26
2 7 10 10 11 8 9 12 14 15 14 13 17 20 20 21 22 21 20 21 19 16 19 24 23 25 21 9 7 11 15 17 15 14 15 14 14 14 15 18 17 16 15 13 11 8 7 6 6 7 8 9 10 12 13 12 12 12 10 10 9 8 8 9 10 11 12 13 14 15 15 15 16 17 19 20 21 23 23 24 25 25 26 26 26 26
2 5 8 9 8 7 8 12 13 15 15 15 17 18 18 19 19 19 19 19 18 19 24 22 18 21 14 5 4 9 14 16 13 14 17 16 15 16 17 18 18 18 20 18 16 15 14 14 14 13 13 13 12 13 14 15 15 14 14 13 12 10 10 10 10 11 12 13 14 14 15 15 15 16 17 18 19 20 21 22 24 25 26 26 27 27
3 4 6 7 6 6 8 12 15 14 13 14 16 18 19 19 18 19 22 21 18 19 20 15 14 17 8 6 6 9 9 9 11 15 17 16 16 18 19 19 20 22 24 22 21 20 20 20 20 18 16 15 15 15 16 16 16 16 16 15 14 13 12 13 13 13 13 13 13 14 14 14 14 14 15 16 16 17 18 19 20 22 24 25 26 27
6 6 6 7 8 8 7 11 14 12 9 10 15 21 24 24 23 23 22 22 20 17 14 13 17 16 5 7 11 11 9 9 11 15 17 17 19 22 22 23 24 26 26 26 26 25 23 21 20 18 16 14 14 15 16 16 17 17 16 15 15 14 14 15 15 15 15 14 14 14 14 13 13 13 13 14 14 15 15 15 15 16 18 20 21 23
9 8 7 7 7 7 7 9 9 10 11 12 15 22 27 27 26 22 19 20 18 15 14 16 19 16 7 8 11 9 10 14 17 22 24 24 25 25 27 29 29 28 28 27 26 25 21 20 19 17 15 14 14 14 14 15 15 15 14 14 14 14 14 16 17 17 17 17 16 15 14 13 12 11 12 12 13 14 13 13 12 12 12 14 15 16
10 9 6 6 4 5 8 8 8 11 13 9 8 16 21 21 20 20 21 22 21 21 23 23 22 16 10 10 13 14 17 20 22 27 29 27 27 30 34 35 31 27 26 25 24 23 21 20 19 17 16 15 14 13 13 14 14 13 13 13 13 13 14 15 18 19 19 19 17 16 15 13 12 11 12 12 12 13 13 12 12 12 12 13 14 16
9 9 5 4 4 5 6 8 9 7 4 4 7 12 13 12 14 17 20 23 24 23 21 22 23 18 14 17 20 21 22 22 23 27 30 28 29 35 39 37 31 26 24 24 24 23 22 22 20 19 20 20 18 16 16 17 17 14 14 14 13 13 13 15 16 18 18 17 16 15 15 14 13 13 12 12 12 12 13 13 13 13 13 14 15 17
8 8 5 4 3 3 6 9 7 1 2 5 9 12 16 16 19 19 17 19 19 18 17 20 23 22 21 24 24 19 13 11 14 20 26 28 31 36 39 36 30 26 24 22 22 22 22 23 23 25 26 25 23 21 20 21 21 17 16 16 16 14 14 14 15 15 16 15 14 14 14 14 14 13 12 12 12 12 12 13 14 14 15 16 16 17
7 8 5 5 3 3 5 7 6 3 7 12 12 16 21 21 18 13 9 12 13 19 25 26 25 24 20 18 19 16 9 8 11 10 18 27 37 39 37 35 32 29 28 27 26 26 27 28 29 30 29 27 26 25 24 24 22 18 17 19 18 16 15 15 14 13 14 14 14 14 14 15 15 14 13 12 12 12 13 13 14 14 15 16 17 17
8 7 4 3 3 4 6 7 7 8 13 11 11 14 18 19 15 11 4 14 16 20 29 28 23 21 17 14 18 15 9 11 11 8 16 30 39 36 33 34 32 30 29 30 29 29 29 29 29 28 27 27 26 25 24 23 20 18 19 20 20 18 16 15 13 12 12 13 14 15 15 14 14 14 13 12 12 13 13 14 15 15 16 16 16 17
6 5 3 3 3 6 8 7 5 7 10 7 13 14 19 26 22 13 5 16 15 18 30 31 24 23 23 21 20 13 10 15 15 12 22 31 29 24 23 24 22 20 21 22 22 23 23 23 23 23 23 24 23 22 21 19 19 19 20 21 20 18 15 14 13 13 13 14 15 15 15 15 14 14 13 13 12 13 13 14 16 17 18 18 18 17
3 3 5 6 5 8 10 8 5 7 6 7 13 19 27 28 17 10 13 12 6 18 32 34 28 29 31 27 20 15 23 32 26 18 19 20 17 17 17 16 16 16 16 18 18 17 17 18 19 20 21 21 21 19 18 18 19 20 20 20 19 17 15 14 15 15 16 16 16 16 16 15 15 14 14 13 13 13 14 14 15 16 17 18 18 19
4 2 4 5 5 6 7 6 5 7 6 11 17 26 33 21 10 12 9 4 11 20 31 35 35 36 37 35 33 34 39 38 26 17 16 16 17 17 16 15 15 15 15 17 16 15 16 17 19 20 20 20 19 17 16 16 18 19 19 19 18 17 17 17 17 17 16 16 16 16 16 16 15 15 14 14 14 13 13 13 14 15 16 17 18 19
7 6 6 6 5 4 2 5 6 9 7 21 23 21 22 14 8 5 5 6 8 16 23 30 33 35 38 40 43 45 40 29 21 19 19 20 19 18 17 17 16 15 16 17 17 17 18 19 20 20 19 18 16 15 15 16 17 18 18 19 18 19 19 19 18 16 15 15 15 15 15 15 14 14 13 13 13 13 12 12 13 14 15 16 18 20
6 8 7 5 6 6 6 10 8 5 8 29 26 13 13 8 0 5 6 4 7 11 17 23 26 29 34 35 34 35 32 25 21 21 20 20 20 20 19 18 18 19 19 18 18 17 16 17 17 17 16 15 14 13 13 14 15 16 16 17 17 17 17 16 15 14 13 13 12 12 12 12 12 12 12 12 12 12 12 12 13 13 14 15 17 18
10 11 6 4 9 9 6 9 7 1 10 28 23 17 23 17 3 6 12 10 12 15 16 21 26 29 32 33 31 30 29 26 23 21 19 20 20 19 19 19 19 19 18 16 15 13 11 11 11 10 10 9 9 9 9 10 11 11 12 12 13 13 13 12 11 11 10 10 9 9 10 10 10 10 10 11 11 11 12 12 12 13 13 14 15 16
9 9 3 1 6 8 8 7 3 1 10 22 17 20 36 31 12 7 13 15 20 22 19 22 27 26 26 28 28 26 25 23 22 20 19 19 18 18 19 18 17 16 14 13 11 8 7 8 7 6 6 6 6 7 7 7 8 8 9 10 10 10 10 10 10 10 9 9 9 9 9 9 9 9 9 9 10 9 9 10 10 11 11 12 13 13
4 10 7 1 5 9 10 9 6 4 12 20 17 19 31 29 16 11 11 11 16 20 18 19 20 20 21 22 21 21 21 21 21 21 20 19 18 18 18 16 16 16 14 11 8 7 7 7 6 6 6 6 6 7 7 7 8 8 9 9 10 10 10 10 10 10 10 10 10 9 9 8 8 8 7 7 8 7 8 8 8 8 9 9 10 11
6 11 9 6 7 9 9 8 9 12 18 24 23 22 27 25 17 13 12 11 15 19 19 19 19 19 20 20 19 20 21 20 21 21 21 21 20 19 18 17 17 17 15 11 10 9 9 8 7 7 6 6 7 7 7 8 9 9 10 10 11 11 10 10 11 10 10 10 9 8 7 7 6 6 6 6 6 6 6 7 7 7 8 8 9 9
8 10 10 8 7 7 8 5 7 10 14 20 23 23 27 26 19 14 13 15 18 21 19 18 18 18 18 18 19 19 19 20 20 21 21 22 21 19 18 18 18 17 15 14 13 12 10 9 8 8 8 8 8 8 9 9 10 10 11 12 12 12 12 11 10 9 8 7 6 6 5 5 4 4 5 5 5 5 5 6 7 7 8 8 9 9
9 9 9 7 8 12 12 8 10 7 4 11 17 19 24 27 24 21 21 21 19 19 18 18 18 17 17 17 18 18 19 20 21 21 22 21 20 18 18 18 18 18 16 16 15 13 11 10 9 8 8 8 9 10 10 10 11 12 12 12 12 11 10 9 8 7 6 5 4 4 3 3 3 3 4 5 5 6 6 7 7 8 8 8 9 10
13 13 11 10 12 12 7 12 17 9 4 13 24 26 28 33 32 31 31 26 21 19 17 18 19 18 16 17 18 19 20 21 22 22 22 21 20 19 18 18 18 19 18 17 16 14 11 10 9 9 9 9 10 11 11 11 12 12 11 10 9 8 7 6 5 5 4 3 2 2 2 2 3 4 5 6 7 7 8 8 9 9 10 10 10 11
Wind_Direction
173 171 200 206 197 186 192 196 199 181 175 194 187 199 226 236 230 205 158 158 174 193 236 231 247 258 250 240 236 250 257 248 236 231 225 222 222 222 220 221 226 228 232 236 238 236 229 226 225 222 223 225 222 221 222 221 217 214 216 224 227 223 220 222 224 224 224 224 226 227 228 231 233 233 233 233 234 234 238 242 244 247 249 249 247 247
178 198 209 203 191 180 188 196 198 205 217 211 179 211 227 240 247 205 131 142 162 177 245 241 254 259 253 250 239 238 246 252 241 227 223 222 218 218 220 223 229 233 234 233 233 235 232 227 225 223 223 224 224 223 224 223 221 219 219 225 230 226 221 222 225 226 226 226 228 231 233 234 236 237 236 237 237 236 239 243 246 249 252 252 251 250
188 215 206 188 186 185 187 197 198 205 219 216 187 217 228 230 248 171 127 146 158 168 243 251 256 258 259 254 242 235 231 240 243 232 223 224 221 218 217 220 226 230 231 229 228 228 231 231 227 225 224 224 227 228 228 226 222 222 224 227 231 230 224 223 224 226 228 229 231 234 237 237 239 242 243 243 244 243 243 245 248 250 254 254 251 252
198 215 192 177 187 191 189 198 200 203 213 215 197 215 236 221 230 199 137 153 160 186 259 271 269 265 265 258 247 236 231 233 237 235 233 230 225 223 222 221 221 222 225 227 226 224 227 230 228 227 226 226 227 227 227 227 225 225 227 230 232 233 230 226 226 228 229 230 231 234 237 239 242 245 247 247 247 247 246 246 247 249 252 253 251 250
203 193 177 178 186 191 195 198 196 200 208 211 205 215 236 220 220 209 140 152 183 220 246 270 285 271 244 242 244 234 229 232 234 233 236 234 228 226 226 223 221 221 223 226 226 224 225 229 231 232 231 229 227 227 227 227 228 230 231 232 233 234 235 233 231 231 230 230 231 232 233 235 237 240 241 242 242 244 244 245 245 246 249 251 251 249
204 165 172 183 184 188 198 197 193 195 195 206 211 221 236 229 231 212 146 136 266 260 218 204 268 277 236 233 241 230 217 225 231 229 231 234 229 224 224 222 220 219 221 225 228 228 229 233 235 235 233 232 231 230 230 230 231 234 235 235 235 236 238 238 236 235 233 233 233 233 233 234 235 236 237 239 241 243 245 247 246 246 247 248 248 246
190 165 173 184 182 186 197 199 194 189 186 200 190 205 238 246 253 260 147 144 244 286 199 170 234 282 303 272 260 265 242 225 225 221 224 231 229 222 221 221 220 217 216 220 226 230 233 234 235 236 236 235 235 234 233 234 234 235 236 237 237 238 239 240 241 240 238 237 237 237 238 240 241 242 243 244 245 246 247 249 249 248 247 246 245 245
165 172 177 181 180 185 195 199 193 183 182 194 168 182 219 242 254 269 279 231 238 348 296 203 211 272 282 265 248 256 264 253 235 221 218 223 226 225 222 221 222 220 217 218 220 225 231 235 236 238 239 238 237 237 237 237 237 236 237 239 240 241 241 241 242 243 242 241 241 241 241 241 243 245 247 248 248 248 248 248 247 247 247 246 244 243
165 176 178 176 180 188 191 188 178 175 174 174 162 169 195 222 236 248 265 262 48 26 272 211 179 256 269 245 212 230 242 244 238 231 220 216 220 223 222 221 223 225 225 224 224 225 229 234 238 240 241 241 239 237 237 238 239 240 239 239 239 240 241 242 242 243 244 243 243 244 243 243 244 245 246 246 246 247 246 246 246 246 247 247 244 242
171 181 177 173 180 186 180 167 163 174 176 156 142 117 122 173 205 15 313 79 59 311 249 208 179 247 274 250 209 226 230 230 231 230 232 225 217 215 216 221 225 228 229 229 231 231 231 233 238 241 241 241 239 237 237 239 240 242 241 238 237 238 240 241 242 243 244 244 244 244 244 244 244 244 243 243 243 243 243 243 244 245 246 247 245 243
170 174 172 175 185 177 159 146 163 176 161 138 126 99 89 64 47 41 42 75 56 264 234 192 198 239 277 236 187 203 211 210 219 223 233 236 223 213 214 220 225 228 229 231 233 234 234 235 237 240 240 240 240 239 240 242 242 243 243 240 239 238 239 241 242 243 245 245 245 245 246 245 245 244 243 242 242 242 242 242 242 243 246 247 245 244
166 158 163 184 185 169 148 140 175 183 160 143 137 122 109 40 36 34 38 90 217 250 218 188 199 210 239 241 206 236 230 201 203 214 224 232 231 224 220 223 226 228 230 232 233 233 232 233 234 235 237 239 240 241 242 244 244 243 244 244 241 239 239 240 241 242 244 246 247 248 248 247 247 246 245 245 245 244 245 245 244 243 244 245 244 242
169 161 159 165 187 172 152 140 174 187 169 163 161 146 153 170 115 175 186 184 230 237 320 197 183 215 239 251 257 264 273 251 214 210 217 226 236 238 233 231 230 229 232 233 234 234 231 231 232 232 234 236 238 241 242 244 244 243 244 244 243 241 240 240 240 242 243 245 248 250 249 249 248 248 247 248 248 247 247 247 247 244 244 245 244 242
168 181 170 157 194 181 162 154 169 183 181 182 175 165 175 169 165 201 188 221 247 228 225 162 89 272 266 261 240 240 249 248 240 236 236 239 245 250 257 254 237 228 229 233 236 237 234 231 230 231 233 235 237 240 242 243 242 242 243 243 243 242 240 240 241 242 243 245 248 249 250 249 248 248 249 249 250 249 248 248 248 247 246 247 248 247
169 184 177 167 167 173 177 181 174 164 174 187 176 164 181 170 175 195 177 211 228 174 218 181 133 241 232 302 259 238 240 242 242 243 242 245 247 250 257 260 252 237 230 232 235 237 235 232 229 228 230 233 235 238 241 242 242 242 242 242 243 243 241 240 240 242 243 245 247 247 248 249 248 249 249 250 251 250 249 248 248 248 247 249 251 250
175 188 170 165 157 168 179 185 163 142 158 189 158 159 200 197 168 177 174 199 188 113 211 196 227 268 252 297 288 271 268 252 244 244 239 239 241 244 249 250 252 250 245 241 239 240 239 236 234 233 234 236 238 239 241 243 244 244 244 244 244 244 243 241 241 242 244 246 246 246 247 248 248 249 248 248 249 250 249 248 247 248 248 249 250 250
182 179 164 162 166 178 182 174 163 160 159 163 170 176 194 90 116 149 252 96 123 230 223 182 245 288 295 290 275 248 253 247 235 241 238 237 240 243 246 248 251 253 253 254 254 253 251 248 248 248 249 249 250 250 250 252 253 252 251 249 248 248 246 245 244 244 244 245 246 247 248 249 248 248 249 249 249 249 248 246 247 247 247 248 249 249
166 126 169 176 177 187 183 169 169 174 157 148 185 176 120 45 56 124 232 157 163 244 239 184 219 228 206 264 265 233 243 239 217 222 231 237 238 240 245 249 255 256 256 260 263 265 264 261 261 261 261 261 260 260 259 258 259 258 256 253 251 250 249 249 248 247 247 247 247 248 248 249 249 249 249 249 248 247 246 245 246 246 246 246 248 249
147 110 358 251 178 149 134 145 167 200 167 152 170 164 145 198 204 170 201 209 195 234 260 210 217 214 200 225 295 246 233 227 216 210 217 231 233 239 247 252 255 252 251 258 264 270 270 267 264 260 259 259 258 259 259 257 256 254 253 251 250 250 249 249 249 248 249 249 248 249 249 249 249 249 248 247 246 245 244 245 246 246 247 247 248 249
156 142 95 275 254 125 107 148 182 194 355 102 151 177 195 227 195 181 194 184 179 225 256 237 223 229 211 193 203 235 228 212 209 198 197 222 232 239 240 231 227 230 243 257 262 267 269 266 263 258 258 258 257 257 257 257 257 256 255 253 251 252 251 251 251 250 249 249 249 249 248 248 247 247 247 246 245 244 244 246 247 247 248 248 249 249
152 148 137 160 295 185 169 199 188 177 169 163 175 190 199 197 117 172 200 190 164 204 245 257 250 253 238 183 197 222 230 218 208 192 192 215 222 221 201 187 205 244 250 260 264 273 278 277 276 271 268 266 264 262 257 255 255 255 255 255 253 251 251 253 254 254 252 250 249 248 248 247 246 245 245 244 244 244 244 246 246 247 247 248 249 249
155 147 141 140 216 191 179 198 202 182 176 179 187 187 187 184 145 157 206 209 198 214 232 261 267 263 250 196 194 208 220 211 189 183 195 199 189 177 170 181 323 309 281 286 293 298 295 289 286 282 279 277 275 273 267 258 253 250 250 251 250 249 249 252 255 255 254 252 249 247 247 246 244 243 242 242 242 242 244 245 246 246 246 246 247 249
126 110 135 136 167 178 160 199 316 213 182 184 200 191 184 183 174 188 209 198 183 222 246 294 280 273 238 171 172 177 170 145 148 179 201 169 146 146 153 289 302 297 296 296 302 309 302 290 283 277 276 275 274 275 275 271 262 255 252 252 252 252 252 254 256 257 257 255 251 248 246 244 243 243 242 242 241 242 243 245 245 245 244 245 247 248
101 108 137 104 73 35 40 46 352 354 170 182 217 198 185 192 195 194 196 164 169 203 196 202 258 265 272 352 112 121 126 131 152 190 188 140 136 158 188 259 276 281 279 125 115 105 90 57 303 275 269 266 264 263 264 269 269 265 262 260 260 260 258 257 258 259 260 260 258 254 251 249 247 246 246 245 244 244 244 243 243 243 244 246 248 248
171 148 139 124 136 111 79 143 259 316 211 194 202 199 191 192 190 182 154 141 193 204 186 199 239 241 270 341 24 90 126 156 188 202 195 181 176 190 228 237 218 172 134 118 104 94 81 67 52 29 342 296 278 268 264 264 266 267 267 267 266 265 264 263 262 263 264 265 265 262 260 256 252 250 249 248 248 248 247 246 246 247 248 249 249 249
175 171 164 161 173 176 178 187 185 190 197 188 189 195 197 191 186 189 191 174 212 209 185 204 237 238 308 329 327 288 204 203 209 197 194 207 202 202 223 194 167 146 128 110 96 86 73 62 50 41 31 14 352 325 306 295 291 286 277 273 269 265 264 264 265 266 267 265 263 262 260 258 253 250 249 249 250 251 251 250 249 248 249 250 250 250
140 191 193 185 190 189 189 182 145 144 158 169 180 189 197 198 188 191 201 204 219 217 194 232 252 274 281 270 261 257 232 221 221 198 192 205 203 201 200 177 162 154 142 117 98 84 69 63 53 46 41 33 28 17 352 327 313 304 289 279 270 261 258 258 261 265 266 266 263 260 260 258 255 252 250 250 251 251 251 250 248 247 246 246 247 250
127 196 198 201 206 193 163 140 138 150 167 176 176 178 187 190 181 191 212 219 225 234 249 249 250 260 260 244 213 216 227 225 223 201 201 212 211 200 188 176 170 167 160 143 120 97 74 65 55 47 43 36 29 24 17 4 345 328 307 293 282 275 271 266 267 271 272 274 273 269 268 265 263 261 258 257 256 255 254 252 249 248 247 247 249 251
151 194 191 198 202 173 127 141 158 168 177 178 176 179 185 184 182 194 210 215 211 207 229 235 229 237 246 236 195 198 207 213 219 206 203 210 204 192 185 182 183 184 184 187 180 154 90 30 21 21 22 21 17 12 9 6 358 348 334 319 303 292 286 279 277 276 274 275 276 274 271 266 264 263 261 261 260 259 257 254 250 247 245 245 246 247
218 191 175 181 194 182 147 147 163 176 176 178 185 187 186 187 190 196 205 214 213 212 227 231 231 238 242 220 192 209 206 209 213 195 187 192 190 189 191 194 198 199 203 214 219 223 246 273 294 316 330 341 351 356 354 352 349 344 336 328 319 306 293 282 276 273 272 273 273 271 270 266 262 260 259 260 260 259 258 255 252 248 243 241 239 240
244 188 160 162 185 198 165 154 168 178 176 180 189 191 188 190 197 204 212 217 214 220 231 235 243 254 246 174 178 225 207 199 192 178 181 184 186 195 201 207 217 219 219 227 235 246 261 269 276 289 301 309 316 322 326 328 330 331 329 324 316 307 299 290 281 273 270 272 272 272 272 270 266 263 261 261 260 259 257 254 251 248 244 240 235 235
204 188 164 155 176 206 185 169 171 174 179 188 191 190 189 189 195 205 213 214 208 216 228 233 246 253 234 147 201 234 209 187 174 177 185 185 193 210 217 224 236 234 230 236 248 260 270 273 277 285 292 297 301 304 308 312 313 316 321 321 312 300 293 292 289 280 271 269 270 270 270 268 267 266 264 262 261 258 254 251 249 246 244 242 237 234
171 171 170 162 182 203 192 174 169 163 174 201 200 192 188 192 199 204 212 216 211 210 215 220 232 236 189 153 210 221 212 209 199 193 197 203 214 228 233 235 240 240 240 248 258 265 272 275 278 284 288 293 297 299 301 303 303 306 311 315 311 298 288 284 284 281 276 271 269 268 267 266 265 265 264 263 261 257 251 246 245 243 241 241 238 235
170 172 173 172 185 187 162 153 156 168 197 214 205 193 191 194 198 202 214 218 213 214 222 228 237 236 206 191 211 211 206 213 215 215 216 220 226 234 238 239 242 247 251 255 261 267 271 275 280 283 286 293 296 295 296 296 298 301 302 304 305 300 289 279 276 276 274 273 271 270 268 266 263 263 262 259 256 253 247 240 237 238 236 234 233 233
180 175 170 176 181 158 148 149 167 202 219 213 181 185 194 198 198 205 221 221 211 215 224 232 241 239 225 223 227 228 227 220 218 222 222 221 227 235 244 247 247 248 250 253 260 267 271 275 278 279 284 292 291 285 287 291 295 295 290 288 291 292 289 281 275 275 274 273 274 273 270 267 264 261 258 253 249 245 241 234 228 226 225 225 229 232
188 185 178 174 163 145 154 172 191 215 218 142 145 165 176 193 201 208 227 229 217 214 221 233 243 241 236 236 230 226 228 223 222 226 223 220 227 238 246 251 249 247 249 253 260 265 267 269 269 271 279 288 285 279 280 286 290 287 277 273 275 280 283 282 279 278 278 277 276 273 270 265 262 259 257 252 245 238 234 229 225 224 224 227 232 234
195 194 176 155 175 168 167 187 208 304 68 163 183 172 170 189 200 199 222 235 222 213 217 227 235 234 229 230 225 218 215 219 233 230 217 218 232 242 246 249 251 252 254 255 257 258 259 260 264 270 277 280 278 275 276 279 282 278 268 263 264 268 273 276 278 279 279 278 276 272 268 263 260 259 258 256 249 240 232 227 224 225 228 233 238 239
206 204 180 166 194 166 160 191 211 240 230 213 197 182 184 194 193 183 216 249 227 207 212 221 227 228 226 223 216 209 208 246 259 217 193 218 238 242 244 248 251 253 256 256 256 254 255 259 264 269 272 272 271 272 272 273 273 267 259 256 256 258 262 268 272 275 277 277 274 270 266 261 260 260 259 260 255 244 235 228 226 226 229 234 237 240
208 208 192 176 183 158 172 196 190 214 239 219 173 174 182 176 155 126 180 251 241 210 208 219 225 224 222 209 197 191 200 242 248 183 191 233 245 242 244 249 251 254 257 257 256 256 258 261 262 264 267 267 268 269 267 266 264 258 255 252 250 250 253 258 264 268 270 271 268 266 265 262 260 259 258 258 255 247 237 229 226 227 230 233 233 234
197 191 181 182 187 175 185 198 195 233 246 184 153 168 164 150 134 115 196 248 244 203 203 213 218 217 215 203 190 183 201 227 238 224 223 239 247 240 239 244 243 244 246 246 249 251 253 255 256 257 260 262 263 264 261 257 254 252 253 251 248 248 249 251 256 257 258 259 258 258 259 257 254 253 252 252 250 246 239 230 225 225 228 232 231 230
166 167 176 184 191 187 192 204 226 252 239 161 158 161 145 134 133 164 215 231 181 175 198 208 209 211 211 201 190 201 223 229 235 232 219 222 229 224 220 220 221 227 232 234 238 242 245 251 253 254 256 258 259 259 254 250 248 248 249 250 251 254 254 252 252 250 250 252 252 252 252 250 249 247 245 244 244 242 239 234 229 228 228 229 230 230
159 162 177 183 187 189 200 211 237 260 221 156 153 151 143 144 183 201 196 153 133 168 192 199 202 205 204 200 202 214 225 227 223 211 199 206 219 219 215 220 226 228 226 225 230 238 245 250 251 251 254 256 256 253 247 242 242 244 248 251 253 256 258 255 251 248 247 248 249 248 246 243 244 245 244 245 247 246 244 241 236 235 235 234 234 235
174 169 178 190 177 162 200 203 225 266 197 147 146 153 158 174 214 183 105 73 136 172 186 193 201 204 200 201 207 214 221 220 212 212 216 219 226 229 231 236 234 225 222 224 233 242 245 244 243 244 247 247 245 242 237 235 237 240 244 247 248 250 252 251 248 245 244 245 246 245 243 242 243 246 247 247 248 247 245 243 240 239 239 239 240 241
186 179 181 199 183 165 193 198 204 282 164 152 153 171 189 197 147 132 147 127 144 171 185 194 205 206 203 206 211 213 218 218 215 219 220 220 229 233 233 231 226 222 226 231 234 238 237 237 237 234 233 233 231 232 234 235 238 240 241 243 244 246 247 246 245 243 242 242 242 240 240 240 239 241 241 240 240 240 239 238 238 239 240 242 243 245
203 194 181 197 196 191 211 204 189 11 172 170 167 173 189 202 217 158 183 191 181 186 193 197 203 205 205 208 210 211 216 218 217 220 222 223 227 226 222 222 222 224 228 226 223 224 224 229 231 225 225 227 224 227 233 233 236 238 238 239 238 237 237 235 234 233 229 227 226 222 221 223 223 225 228 228 230 233 234 236 239 241 244 247 249 252
201 199 206 222 201 222 266 250 200 76 186 188 185 179 187 198 212 187 192 199 191 188 189 193 197 196 196 202 205 204 209 214 216 219 220 219 218 214 214 216 212 209 207 201 201 208 211 217 221 219 222 219 211 218 222 219 222 223 223 225 222 218 220 216 210 207 202 197 196 195 196 200 203 209 214 220 225 229 232 236 240 243 249 253 256 261
202 201 217 239 176 206 243 235 193 175 193 193 193 189 188 194 206 208 204 197 182 176 173 178 182 180 181 191 196 196 202 210 214 214 212 209 209 207 205 201 193 189 187 185 190 198 198 202 208 210 210 204 198 201 202 200 203 204 204 207 205 201 200 193 187 183 179 177 177 178 182 189 195 201 208 214 221 227 231 237 243 248 255 260 264 268
198 187 197 217 200 202 234 228 183 184 197 194 192 193 192 193 199 200 198 192 181 175 171 170 174 178 182 187 191 195 202 207 209 208 203 201 203 200 193 189 186 184 185 189 191 188 186 189 197 200 199 198 194 192 190 191 192 191 193 192 187 182 178 174 172 171 169 171 173 174 180 189 195 202 210 217 223 228 231 237 245 249 252 257 261 265
145 165 190 208 212 233 267 257 173 177 200 201 198 197 196 196 197 195 196 197 190 186 183 177 176 181 188 191 195 201 205 205 205 204 197 194 194 192 187 186 186 188 191 190 183 181 184 188 192 195 196 195 194 190 188 187 185 182 180 175 170 168 166 166 167 166 167 170 172 175 184 195 203 215 227 236 244 248 249 252 256 258 259 261 265 266
143 184 197 182 202 232 244 213 169 163 197 203 201 201 200 201 203 206 210 209 201 195 191 185 183 186 192 198 204 210 208 201 196 195 193 188 186 185 183 182 184 185 184 180 177 181 186 189 192 195 193 191 190 187 182 179 176 172 168 166 165 163 162 163 163 164 167 172 174 183 200 216 239 257 266 275 280 282 281 281 282 283 282 281 279 279
191 197 186 183 210 227 210 166 170 168 140 180 192 200 204 206 209 213 216 217 214 210 205 198 195 194 194 200 206 208 205 198 190 188 187 182 178 179 177 176 178 178 175 175 180 183 186 190 192 191 188 185 182 178 173 171 169 165 161 159 157 155 154 156 156 159 164 169 179 206 244 270 288 299 303 303 305 307 306 303 301 301 299 297 294 292
Height
1522 1529 1530 1526 1524 1525 1526 1527 1529 1528 1529 1531 1533 1537 1538 1538 1536 1531 1532 1536 1537 1542 1543 1540 1539 1535 1531 1530 1529 1529 1529 1528 1528 1528 1528 1529 1529 1531 1531 1532 1532 1533 1533 1534 1534 1534 1535 1536 1537 1538 1539 1540 1542 1543 1544 1545 1546 1547 1548 1548 1550 1552 1554 1555 1557 1558 1559 1560 1561 1563 1564 1564 1566 1567 1569 1570 1570 1571 1571 1572 1573 1573 1574 1575 1576 1577
1522 1525 1521 1519 1520 1523 1525 1526 1527 1528 1528 1530 1534 1537 1538 1538 1534 1527 1530 1535 1536 1542 1542 1537 1537 1534 1529 1527 1525 1526 1526 1525 1524 1524 1524 1524 1525 1527 1527 1528 1529 1529 1531 1532 1532 1532 1532 1533 1534 1535 1536 1537 1538 1539 1540 1541 1543 1544 1545 1545 1546 1549 1550 1551 1553 1554 1555 1557 1558 1560 1561 1562 1563 1565 1566 1567 1568 1569 1570 1570 1571 1571 1572 1573 1574 1574
1522 1517 1512 1515 1519 1522 1525 1525 1527 1529 1529 1532 1534 1538 1540 1536 1531 1529 1531 1534 1536 1541 1541 1536 1536 1532 1526 1523 1522 1522 1522 1521 1520 1519 1520 1521 1522 1522 1523 1524 1525 1526 1528 1528 1529 1529 1529 1530 1531 1532 1532 1533 1535 1536 1537 1538 1540 1541 1542 1543 1544 1545 1547 1548 1549 1550 1552 1554 1556 1558 1559 1560 1561 1562 1563 1564 1566 1567 1568 1569 1569 1569 1570 1570 1571 1572
1516 1509 1507 1513 1517 1520 1524 1525 1527 1529 1530 1531 1534 1539 1539 1533 1532 1535 1536 1535 1536 1538 1538 1535 1535 1531 1524 1521 1518 1517 1516 1515 1516 1516 1516 1517 1518 1518 1519 1520 1521 1522 1523 1524 1525 1525 1526 1527 1528 1528 1529 1530 1532 1532 1533 1535 1536 1537 1538 1539 1540 1542 1543 1545 1546 1548 1550 1552 1554 1555 1557 1558 1559 1560 1561 1562 1563 1564 1565 1566 1567 1567 1567 1568 1569 1570
1505 1502 1505 1511 1514 1517 1522 1523 1525 1529 1531 1531 1532 1536 1536 1531 1530 1532 1535 1535 1535 1536 1535 1537 1539 1530 1521 1519 1514 1511 1511 1511 1511 1513 1513 1513 1514 1515 1516 1517 1517 1517 1518 1520 1521 1522 1523 1524 1524 1525 1526 1527 1528 1528 1529 1531 1532 1533 1535 1536 1538 1539 1540 1542 1544 1545 1547 1550 1551 1552 1554 1555 1556 1557 1557 1558 1558 1559 1561 1562 1563 1564 1565 1565 1566 1567
1500 1499 1502 1507 1510 1514 1518 1520 1521 1525 1530 1532 1531 1531 1531 1529 1527 1527 1532 1535 1540 1541 1535 1537 1545 1530 1512 1513 1511 1506 1508 1508 1507 1508 1509 1510 1510 1511 1512 1512 1513 1513 1514 1516 1517 1518 1519 1520 1521 1522 1523 1524 1524 1525 1526 1528 1529 1530 1531 1533 1535 1536 1537 1539 1540 1542 1545 1546 1547 1548 1549 1550 1550 1551 1551 1552 1553 1555 1556 1558 1559 1561 1562 1563 1563 1564
1497 1498 1499 1504 1507 1511 1515 1517 1516 1518 1527 1533 1528 1526 1528 1527 1526 1527 1530 1535 1543 1543 1534 1534 1545 1536 1517 1512 1509 1505 1505 1505 1504 1504 1505 1506 1507 1506 1506 1508 1509 1510 1510 1512 1513 1515 1516 1517 1518 1519 1519 1521 1521 1523 1524 1526 1527 1527 1528 1530 1531 1532 1533 1535 1536 1538 1541 1542 1543 1544 1545 1546 1546 1546 1547 1548 1550 1552 1553 1555 1556 1558 1558 1560 1560 1561
1491 1496 1498 1500 1505 1509 1512 1514 1512 1513 1524 1529 1522 1522 1527 1526 1528 1529 1530 1535 1538 1539 1536 1533 1538 1542 1529 1514 1506 1505 1505 1503 1501 1500 1500 1500 1501 1501 1502 1503 1504 1506 1507 1508 1510 1511 1512 1513 1514 1515 1516 1517 1519 1521 1523 1523 1524 1525 1526 1527 1528 1529 1530 1531 1533 1534 1536 1537 1538 1539 1541 1542 1542 1543 1544 1546 1548 1549 1551 1552 1552 1554 1555 1556 1557 1558
1484 1491 1493 1496 1502 1506 1507 1507 1508 1512 1522 1524 1518 1520 1524 1525 1527 1528 1530 1536 1538 1543 1545 1536 1535 1542 1530 1510 1503 1502 1502 1502 1498 1496 1495 1494 1495 1496 1497 1499 1500 1502 1503 1504 1505 1506 1507 1508 1510 1512 1513 1515 1516 1518 1519 1520 1521 1522 1523 1524 1525 1526 1527 1527 1529 1529 1531 1533 1534 1535 1536 1538 1538 1540 1542 1543 1545 1546 1547 1548 1548 1550 1551 1552 1554 1554
1482 1485 1487 1492 1499 1502 1503 1505 1507 1511 1518 1520 1519 1520 1523 1526 1527 1530 1534 1538 1544 1549 1547 1537 1535 1540 1527 1506 1503 1504 1501 1500 1495 1492 1491 1489 1489 1491 1492 1494 1495 1497 1498 1499 1501 1502 1503 1504 1506 1508 1510 1511 1513 1514 1516 1517 1519 1520 1520 1521 1522 1522 1523 1524 1525 1526 1527 1529 1530 1531 1531 1533 1534 1536 1538 1540 1541 1542 1543 1544 1544 1545 1547 1548 1549 1550
1482 1485 1489 1492 1495 1497 1501 1505 1507 1511 1515 1517 1520 1523 1528 1531 1531 1535 1537 1540 1550 1549 1539 1534 1532 1538 1533 1507 1498 1500 1495 1493 1491 1489 1488 1486 1486 1487 1488 1490 1491 1492 1494 1495 1497 1498 1500 1502 1503 1505 1506 1507 1509 1510 1512 1513 1515 1516 1517 1518 1518 1519 1521 1521 1522 1523 1523 1525 1526 1526 1527 1528 1530 1532 1533 1535 1536 1537 1538 1539 1540 1541 1542 1544 1545 1546
1484 1488 1491 1490 1492 1494 1500 1507 1509 1511 1513 1515 1520 1525 1533 1539 1541 1544 1545 1547 1554 1546 1533 1530 1528 1536 1535 1508 1491 1491 1486 1485 1487 1487 1486 1484 1484 1485 1485 1487 1487 1489 1490 1491 1493 1494 1496 1498 1499 1501 1502 1503 1505 1506 1508 1509 1510 1512 1513 1514 1515 1516 1518 1518 1519 1520 1520 1521 1522 1523 1524 1525 1527 1528 1529 1530 1531 1532 1533 1535 1536 1537 1539 1540 1541 1542
1488 1488 1487 1489 1492 1490 1496 1508 1514 1514 1514 1515 1519 1525 1535 1545 1549 1550 1552 1552 1550 1541 1530 1528 1529 1531 1521 1501 1491 1489 1484 1483 1484 1482 1483 1482 1482 1482 1483 1484 1484 1486 1487 1488 1490 1491 1492 1493 1495 1496 1498 1499 1501 1502 1504 1505 1506 1508 1509 1510 1511 1512 1514 1515 1516 1517 1518 1518 1519 1520 1522 1523 1524 1524 1525 1526 1527 1528 1529 1531 1532 1533 1534 1535 1536 1537
1492 1489 1486 1490 1494 1491 1492 1501 1511 1513 1511 1511 1514 1520 1529 1540 1548 1549 1550 1549 1543 1536 1528 1525 1530 1526 1508 1493 1488 1484 1481 1481 1480 1480 1481 1480 1481 1481 1481 1483 1483 1483 1485 1486 1487 1488 1489 1490 1491 1493 1495 1496 1497 1498 1500 1501 1502 1504 1505 1506 1507 1508 1510 1512 1513 1514 1515 1515 1516 1517 1518 1520 1521 1521 1522 1522 1523 1525 1526 1527 1528 1529 1530 1530 1531 1532
1484 1484 1481 1483 1487 1488 1488 1489 1493 1497 1503 1505 1503 1511 1519 1524 1534 1538 1539 1540 1536 1533 1531 1528 1528 1518 1501 1490 1482 1478 1478 1478 1478 1479 1479 1479 1480 1480 1480 1481 1481 1482 1483 1484 1485 1486 1487 1488 1489 1490 1492 1493 1494 1495 1497 1498 1499 1500 1501 1502 1503 1505 1506 1508 1509 1510 1511 1512 1513 1514 1515 1516 1517 1518 1519 1519 1520 1521 1522 1523 1523 1524 1526 1526 1527 1529
1476 1478 1475 1476 1477 1480 1485 1486 1486 1493 1504 1506 1501 1510 1517 1512 1515 1523 1525 1525 1524 1528 1531 1528 1519 1504 1492 1484 1478 1478 1478 1476 1477 1477 1476 1478 1477 1478 1479 1478 1478 1479 1480 1482 1483 1484 1485 1486 1487 1488 1489 1490 1491 1493 1493 1494 1496 1496 1498 1499 1500 1501 1503 1504 1505 1506 1507 1508 1510 1511 1512 1513 1514 1514 1515 1516 1516 1517 1519 1520 1520 1521 1522 1524 1525 1527
1471 1478 1476 1476 1477 1477 1481 1485 1486 1491 1500 1504 1505 1510 1510 1504 1506 1516 1521 1519 1520 1525 1523 1517 1512 1502 1495 1487 1476 1476 1476 1473 1476 1476 1474 1475 1475 1476 1476 1475 1476 1477 1478 1480 1481 1482 1483 1484 1485 1486 1487 1488 1489 1490 1490 1491 1493 1493 1495 1496 1497 1498 1499 1500 1501 1502 1504 1505 1506 1507 1508 1509 1510 1510 1511 1511 1513 1514 1516 1517 1518 1519 1520 1521 1522 1523
1461 1478 1481 1477 1478 1477 1478 1482 1484 1485 1489 1499 1506 1505 1503 1507 1508 1513 1522 1522 1525 1527 1515 1507 1508 1506 1504 1494 1475 1471 1474 1472 1473 1474 1473 1473 1473 1474 1473 1472 1474 1475 1477 1478 1478 1480 1481 1481 1483 1483 1484 1485 1486 1487 1487 1489 1490 1490 1492 1492 1493 1494 1495 1497 1498 1499 1500 1501 1502 1502 1503 1504 1505 1506 1507 1508 1509 1511 1513 1514 1515 1516 1517 1518 1519 1520
1453 1477 1487 1481 1480 1480 1479 1485 1490 1489 1487 1491 1497 1495 1499 1510 1513 1513 1518 1519 1523 1525 1512 1502 1502 1500 1498 1489 1475 1472 1473 1470 1470 1471 1471 1472 1471 1471 1471 1472 1474 1474 1475 1476 1476 1477 1478 1478 1479 1479 1481 1482 1482 1484 1484 1485 1486 1487 1488 1489 1490 1491 1492 1493 1494 1495 1496 1497 1497 1498 1499 1500 1502 1503 1504 1505 1507 1508 1509 1510 1511 1512 1514 1515 1516 1517
1447 1467 1485 1485 1481 1481 1483 1489 1494 1493 1490 1489 1493 1494 1494 1499 1504 1505 1506 1506 1512 1517 1511 1502 1498 1490 1481 1477 1474 1471 1468 1466 1467 1468 1469 1470 1469 1469 1470 1471 1472 1473 1474 1474 1474 1475 1475 1476 1476 1476 1477 1478 1479 1480 1481 1482 1483 1484 1485 1486 1486 1488 1488 1489 1490 1490 1492 1492 1493 1494 1495 1497 1498 1500 1501 1502 1504 1505 1506 1507 1508 1509 1510 1511 1513 1514
1446 1456 1476 1486 1484 1483 1485 1485 1483 1484 1487 1490 1494 1496 1495 1496 1498 1498 1498 1498 1503 1510 1509 1504 1499 1483 1467 1464 1466 1464 1462 1463 1464 1465 1467 1467 1467 1468 1469 1470 1471 1471 1471 1472 1472 1472 1473 1473 1473 1474 1475 1475 1476 1477 1477 1478 1479 1480 1481 1482 1483 1484 1485 1486 1486 1487 1488 1488 1489 1490 1491 1493 1494 1496 1498 1499 1500 1501 1502 1504 1505 1506 1507 1508 1509 1511
1445 1452 1470 1484 1484 1481 1480 1477 1475 1476 1479 1483 1486 1488 1490 1493 1497 1502 1505 1498 1496 1502 1502 1502 1499 1480 1460 1457 1458 1458 1460 1461 1462 1463 1465 1465 1466 1467 1468 1469 1469 1469 1470 1470 1470 1471 1471 1471 1471 1472 1472 1473 1473 1473 1474 1475 1475 1476 1477 1478 1479 1479 1480 1482 1482 1483 1484 1485 1486 1487 1488 1489 1490 1492 1494 1495 1496 1498 1499 1500 1501 1503 1504 1504 1506 1507
1438 1451 1468 1480 1481 1479 1478 1477 1477 1477 1475 1478 1482 1482 1485 1489 1492 1498 1502 1496 1495 1497 1495 1500 1500 1478 1456 1454 1456 1456 1458 1459 1460 1462 1463 1464 1466 1466 1467 1468 1468 1468 1469 1469 1469 1469 1469 1469 1469 1469 1469 1470 1470 1470 1471 1471 1472 1473 1473 1474 1475 1475 1477 1478 1479 1479 1480 1481 1482 1482 1483 1485 1487 1489 1490 1492 1493 1494 1496 1497 1498 1500 1500 1501 1503 1504
1437 1450 1467 1480 1483 1480 1479 1478 1477 1476 1477 1481 1482 1479 1481 1484 1483 1486 1489 1490 1495 1497 1496 1505 1503 1477 1457 1455 1456 1456 1457 1458 1460 1461 1462 1464 1465 1465 1467 1467 1467 1467 1467 1468 1468 1468 1468 1468 1467 1467 1467 1467 1467 1468 1468 1468 1469 1470 1470 1471 1472 1473 1474 1474 1475 1476 1476 1477 1478 1479 1480 1481 1484 1486 1487 1488 1490 1491 1493 1495 1496 1497 1498 1499 1500 1502
1434 1444 1459 1476 1485 1485 1486 1485 1483 1482 1479 1477 1477 1475 1475 1477 1480 1484 1485 1487 1493 1492 1492 1501 1496 1474 1460 1458 1456 1456 1457 1458 1459 1459 1461 1462 1463 1464 1465 1465 1466 1466 1466 1467 1467 1466 1467 1466 1466 1466 1466 1466 1466 1466 1466 1466 1467 1467 1468 1469 1470 1470 1471 1472 1472 1473 1473 1474 1475 1476 1477 1478 1480 1482 1483 1485 1487 1489 1491 1492 1493 1494 1495 1496 1497 1499
1431 1436 1439 1450 1462 1466 1468 1466 1464 1467 1468 1468 1470 1471 1472 1472 1476 1480 1484 1490 1492 1486 1485 1490 1483 1470 1462 1459 1458 1458 1458 1458 1458 1459 1460 1461 1462 1463 1463 1464 1464 1464 1465 1465 1465 1465 1465 1465 1465 1465 1465 1465 1465 1465 1465 1465 1466 1466 1466 1467 1468 1468 1469 1470 1470 1470 1471 1472 1472 1473 1474 1475 1476 1478 1480 1482 1484 1486 1487 1489 1490 1491 1492 1494 1495 1497
1431 1432 1428 1429 1433 1433 1437 1439 1439 1446 1458 1466 1468 1470 1472 1473 1474 1478 1484 1488 1484 1482 1486 1483 1475 1471 1466 1460 1461 1461 1459 1458 1457 1457 1459 1459 1460 1461 1461 1462 1462 1463 1464 1463 1464 1464 1464 1464 1464 1464 1464 1464 1464 1464 1464 1464 1464 1464 1464 1465 1465 1466 1466 1467 1467 1468 1469 1469 1470 1472 1472 1473 1474 1475 1477 1478 1480 1482 1483 1484 1486 1488 1490 1492 1493 1494
1429 1431 1428 1428 1427 1425 1429 1437 1439 1442 1451 1458 1462 1467 1471 1472 1476 1480 1482 1480 1478 1486 1490 1477 1471 1472 1461 1454 1459 1460 1458 1457 1456 1456 1457 1457 1458 1459 1459 1460 1460 1461 1462 1462 1463 1463 1463 1464 1464 1463 1464 1463 1463 1463 1463 1463 1463 1463 1463 1463 1464 1465 1465 1466 1467 1467 1468 1468 1469 1470 1471 1472 1472 1473 1474 1475 1476 1478 1479 1480 1482 1484 1487 1489 1490 1492
1425 1428 1426 1427 1429 1428 1430 1436 1439 1442 1446 1450 1455 1459 1461 1465 1471 1474 1475 1472 1472 1481 1479 1465 1464 1461 1446 1444 1454 1455 1454 1455 1454 1454 1455 1455 1457 1457 1457 1458 1458 1459 1459 1460 1461 1462 1462 1463 1462 1463 1463 1463 1463 1463 1462 1463 1463 1463 1463 1463 1463 1464 1464 1465 1466 1466 1466 1467 1467 1468 1468 1469 1470 1470 1471 1472 1473 1474 1475 1477 1479 1481 1483 1485 1487 1489
1423 1424 1424 1427 1431 1430 1430 1434 1437 1440 1446 1451 1454 1455 1456 1460 1462 1463 1465 1463 1464 1469 1462 1453 1455 1448 1435 1442 1451 1449 1450 1452 1450 1452 1453 1453 1455 1455 1456 1456 1456 1457 1457 1457 1459 1460 1460 1461 1461 1462 1462 1462 1462 1462 1462 1462 1462 1462 1463 1462 1463 1463 1463 1463 1464 1464 1464 1464 1465 1465 1466 1467 1467 1468 1468 1469 1470 1471 1472 1473 1475 1476 1479 1480 1483 1485
1424 1424 1423 1426 1432 1432 1431 1433 1436 1439 1443 1449 1452 1453 1455 1460 1462 1463 1462 1459 1462 1463 1453 1452 1458 1446 1433 1441 1448 1446 1447 1448 1447 1449 1450 1450 1453 1453 1453 1454 1454 1455 1455 1455 1457 1458 1458 1459 1460 1460 1461 1461 1461 1461 1461 1461 1461 1461 1461 1461 1461 1461 1461 1461 1461 1462 1462 1462 1463 1463 1464 1464 1465 1466 1466 1467 1468 1468 1469 1470 1471 1473 1474 1476 1478 1481
1423 1426 1423 1426 1434 1435 1431 1432 1436 1439 1443 1448 1451 1451 1454 1456 1458 1456 1451 1447 1452 1454 1454 1462 1461 1441 1431 1440 1445 1443 1445 1445 1445 1446 1447 1449 1451 1451 1451 1452 1452 1452 1452 1453 1455 1455 1456 1456 1457 1458 1459 1460 1460 1460 1460 1460 1460 1460 1460 1460 1460 1459 1460 1460 1460 1460 1460 1460 1461 1461 1462 1462 1463 1463 1464 1465 1465 1466 1467 1468 1469 1470 1471 1472 1475 1477
1419 1422 1424 1427 1432 1432 1431 1432 1435 1440 1449 1450 1442 1438 1440 1441 1441 1441 1440 1439 1442 1446 1452 1455 1441 1425 1429 1439 1440 1439 1442 1442 1443 1444 1446 1447 1448 1448 1448 1448 1448 1448 1449 1451 1452 1453 1453 1453 1454 1456 1456 1457 1457 1457 1458 1458 1458 1458 1458 1458 1458 1458 1458 1458 1458 1458 1458 1458 1459 1459 1460 1461 1461 1461 1462 1462 1463 1464 1464 1465 1466 1467 1468 1470 1472 1474
1415 1417 1421 1423 1425 1429 1433 1433 1436 1443 1443 1430 1417 1417 1423 1426 1431 1438 1438 1436 1439 1441 1441 1435 1423 1421 1432 1436 1434 1436 1438 1438 1440 1441 1442 1444 1444 1445 1444 1443 1444 1445 1447 1449 1449 1449 1450 1451 1452 1453 1453 1454 1455 1455 1455 1456 1456 1456 1456 1456 1456 1456 1456 1456 1456 1457 1457 1457 1457 1457 1458 1459 1459 1460 1460 1460 1460 1461 1461 1462 1463 1464 1466 1467 1469 1471
1413 1415 1419 1419 1421 1429 1433 1434 1440 1439 1423 1408 1406 1413 1419 1423 1430 1436 1433 1430 1432 1433 1430 1425 1420 1422 1431 1432 1432 1435 1434 1435 1437 1437 1438 1440 1441 1441 1439 1438 1440 1443 1444 1446 1446 1447 1448 1448 1449 1450 1450 1451 1451 1452 1453 1453 1453 1454 1454 1454 1454 1454 1454 1454 1455 1455 1455 1455 1456 1456 1456 1457 1457 1458 1458 1458 1458 1459 1459 1460 1461 1463 1464 1465 1467 1469
1413 1414 1415 1417 1422 1427 1431 1433 1431 1421 1411 1408 1410 1413 1422 1428 1432 1435 1431 1422 1420 1422 1424 1424 1421 1423 1428 1429 1429 1430 1431 1432 1433 1432 1433 1437 1438 1437 1434 1433 1437 1439 1441 1442 1443 1444 1445 1445 1446 1446 1447 1447 1448 1448 1449 1450 1450 1451 1451 1451 1452 1451 1452 1452 1452 1453 1453 1453 1454 1454 1455 1455 1455 1456 1456 1457 1457 1458 1459 1460 1461 1462 1463 1464 1466 1467
1413 1412 1413 1418 1421 1422 1427 1427 1419 1413 1415 1412 1407 1407 1411 1412 1413 1420 1421 1412 1410 1418 1422 1419 1417 1417 1419 1421 1424 1428 1431 1431 1429 1427 1430 1434 1433 1430 1429 1431 1434 1436 1437 1439 1440 1440 1441 1441 1442 1442 1443 1443 1444 1445 1445 1446 1446 1447 1448 1448 1448 1448 1449 1449 1450 1450 1451 1451 1452 1452 1453 1453 1454 1454 1455 1456 1456 1457 1458 1459 1460 1462 1463 1464 1465 1466
1413 1412 1411 1415 1418 1419 1423 1424 1422 1422 1414 1400 1394 1394 1394 1397 1402 1411 1420 1413 1404 1408 1411 1406 1405 1407 1410 1417 1423 1427 1431 1430 1422 1420 1426 1430 1426 1424 1427 1430 1431 1432 1434 1435 1436 1436 1437 1438 1438 1438 1439 1440 1440 1441 1441 1442 1442 1443 1444 1445 1445 1445 1446 1446 1447 1448 1448 1449 1450 1450 1450 1451 1452 1452 1453 1454 1455 1455 1457 1458 1459 1460 1461 1462 1463 1465
1412 1412 1411 1414 1417 1418 1419 1418 1420 1415 1396 1381 1384 1389 1394 1402 1404 1415 1430 1416 1389 1389 1399 1398 1398 1403 1408 1415 1420 1424 1430 1424 1412 1413 1423 1423 1419 1422 1426 1426 1427 1428 1429 1430 1431 1432 1432 1433 1434 1435 1435 1435 1436 1437 1437 1438 1439 1439 1440 1441 1442 1442 1442 1443 1444 1445 1446 1447 1447 1448 1448 1449 1450 1451 1451 1452 1453 1453 1454 1455 1457 1458 1459 1460 1461 1462
1413 1413 1415 1417 1416 1415 1414 1412 1410 1400 1382 1375 1382 1388 1394 1397 1400 1422 1438 1405 1367 1374 1391 1389 1390 1398 1402 1409 1415 1418 1418 1409 1402 1409 1417 1416 1416 1420 1421 1421 1423 1425 1425 1426 1427 1427 1428 1429 1430 1430 1431 1432 1432 1433 1434 1435 1436 1436 1437 1438 1438 1439 1439 1440 1441 1442 1443 1444 1444 1445 1446 1447 1448 1449 1450 1451 1451 1452 1452 1453 1454 1455 1456 1457 1459 1460
1412 1413 1413 1413 1412 1412 1411 1408 1402 1389 1375 1372 1378 1381 1388 1396 1406 1420 1413 1375 1355 1369 1379 1378 1384 1391 1395 1403 1408 1406 1401 1397 1399 1406 1410 1411 1414 1416 1416 1418 1420 1420 1421 1422 1423 1424 1425 1425 1426 1427 1427 1428 1429 1430 1431 1432 1432 1433 1434 1435 1436 1437 1438 1438 1439 1439 1440 1440 1441 1442 1443 1444 1445 1446 1447 1448 1449 1450 1451 1452 1453 1453 1454 1455 1456 1458
1407 1410 1411 1410 1410 1411 1408 1405 1402 1386 1367 1366 1376 1379 1383 1394 1398 1388 1370 1357 1360 1365 1366 1370 1378 1381 1386 1393 1395 1392 1392 1395 1400 1403 1405 1409 1411 1411 1413 1415 1415 1416 1419 1419 1420 1421 1422 1422 1422 1423 1424 1424 1425 1426 1427 1428 1429 1430 1432 1433 1434 1435 1436 1437 1437 1437 1437 1438 1439 1440 1441 1442 1443 1444 1445 1447 1448 1449 1450 1450 1451 1452 1452 1453 1454 1455
1392 1398 1402 1402 1403 1408 1409 1409 1404 1383 1359 1357 1371 1376 1372 1371 1369 1361 1356 1361 1364 1362 1364 1370 1372 1374 1379 1382 1382 1385 1388 1393 1398 1401 1403 1406 1407 1408 1410 1411 1412 1414 1416 1416 1418 1418 1418 1418 1419 1419 1420 1420 1421 1422 1423 1424 1426 1427 1428 1430 1431 1432 1433 1434 1434 1435 1435 1436 1436 1438 1439 1440 1441 1442 1444 1445 1446 1447 1448 1449 1450 1450 1451 1452 1453 1453
1384 1385 1389 1391 1392 1397 1401 1395 1383 1368 1355 1353 1359 1362 1358 1356 1356 1358 1360 1362 1363 1363 1367 1369 1369 1373 1377 1377 1380 1384 1387 1392 1396 1397 1399 1402 1403 1404 1407 1408 1410 1412 1412 1414 1415 1414 1415 1416 1416 1416 1417 1418 1418 1420 1421 1422 1423 1424 1425 1427 1428 1429 1430 1431 1432 1433 1433 1434 1434 1436 1437 1438 1439 1441 1442 1443 1444 1445 1446 1447 1448 1449 1450 1450 1451 1452
1376 1372 1374 1377 1377 1375 1373 1367 1362 1360 1358 1356 1353 1353 1356 1358 1359 1360 1361 1361 1363 1365 1365 1366 1369 1371 1373 1375 1380 1383 1386 1390 1392 1393 1396 1398 1399 1402 1404 1406 1408 1409 1410 1412 1412 1412 1414 1414 1414 1415 1416 1416 1417 1418 1419 1420 1421 1422 1424 1425 1426 1427 1428 1429 1430 1431 1431 1432 1433 1434 1435 1436 1437 1439 1440 1441 1442 1443 1444 1446 1447 1448 1449 1449 1450 1451
1366 1367 1368 1369 1370 1369 1362 1358 1359 1360 1358 1356 1355 1354 1356 1359 1360 1361 1361 1362 1362 1363 1364 1366 1368 1368 1371 1375 1378 1381 1384 1387 1388 1390 1393 1395 1398 1401 1402 1404 1406 1407 1408 1410 1410 1411 1413 1413 1413 1414 1414 1415 1416 1416 1417 1419 1420 1421 1422 1423 1424 1426 1427 1427 1428 1429 1430 1431 1431 1432 1434 1435 1436 1437 1438 1440 1441 1442 1443 1444 1445 1446 1447 1448 1449 1450
1367 1369 1369 1368 1371 1371 1361 1354 1356 1359 1357 1356 1357 1356 1356 1359 1361 1362 1363 1362 1362 1363 1365 1367 1368 1370 1373 1375 1377 1380 1382 1384 1386 1389 1391 1394 1396 1398 1399 1401 1403 1404 1406 1408 1409 1410 1411 1411 1412 1413 1413 1414 1415 1415 1416 1418 1418 1420 1421 1422 1423 1424 1425 1426 1427 1428 1429 1430 1431 1432 1433 1434 1436 1437 1438 1439 1440 1441 1443 1443 1444 1445 1446 1447 1448 1448
1365 1367 1369 1368 1367 1363 1355 1351 1354 1357 1356 1355 1356 1356 1357 1360 1361 1362 1363 1364 1364 1365 1366 1367 1370 1372 1373 1375 1378 1380 1381 1383 1385 1387 1389 1392 1394 1395 1397 1399 1400 1402 1404 1405 1406 1408 1409 1410 1411 1412 1412 1413 1414 1415 1416 1417 1417 1419 1420 1421 1422 1424 1425 1426 1428 1428 1430 1431 1432 1433 1434 1435 1436 1437 1438 1439 1440 1441 1442 1443 1443 1444 1445 1445 1446 1446
1362 1364 1363 1363 1364 1360 1354 1351 1354 1355 1354 1354 1355 1355 1357 1358 1360 1362 1364 1363 1364 1364 1365 1367 1370 1372 1374 1377 1378 1379 1380 1382 1384 1385 1387 1389 1391 1392 1395 1396 1397 1400 1401 1402 1404 1406 1407 1408 1409 1410 1411 1412 1413 1415 1416 1416 1417 1419 1419 1420 1422 1423 1424 1427 1428 1429 1431 1432 1433 1434 1435 1436 1438 1438 1439 1440 1441 1441 1442 1442 1443 1443 1444 1444 1445 1445
1358 1358 1356 1360 1363 1356 1345 1344 1349 1351 1352 1353 1354 1356 1357 1358 1360 1361 1361 1360 1362 1363 1364 1366 1369 1371 1374 1376 1377 1379 1380 1381 1382 1384 1386 1387 1388 1390 1392 1393 1395 1397 1398 1400 1402 1404 1405 1407 1408 1409 1410 1412 1413 1414 1416 1417 1418 1419 1420 1422 1423 1423 1425 1427 1428 1429 1431 1432 1433 1435 1436 1437 1438 1439 1440 1441 1441 1442 1443 1443 1443 1444 1444 1444 1444 1444
1344 1343 1346 1350 1349 1340 1335 1339 1346 1348 1349 1351 1354 1356 1357 1358 1358 1358 1357 1358 1360 1361 1363 1365 1367 1370 1372 1374 1376 1378 1379 1380 1381 1383 1384 1386 1387 1388 1389 1391 1393 1394 1396 1398 1400 1401 1404 1406 1407 1409 1410 1411 1413 1415 1416 1417 1419 1420 1421 1423 1424 1425 1426 1427 1428 1429 1430 1431 1433 1434 1435 1436 1438 1439 1440 1441 1442 1442 1443 1443 1444 1444 1444 1445 1445 1445